Date,TemperatureHighF,TemperatureAvgF,TemperatureLowF,DewpointHighF,DewpointAvgF,DewpointLowF,HumidityHigh,HumidityAvg,HumidityLow,PressureMaxIn,PressureMinIn,WindSpeedMaxMPH,WindSpeedAvgMPH,GustSpeedMaxMPH,PrecipitationSumIn
2013-1-1,44.3,38.7,33.3,39.5,33.3,29.1,91,82,61,30.29,30.11,5,1,5,0.00
2013-1-2,48.1,42.0,38.0,34.0,30.1,27.6,71,63,53,30.14,29.99,5,2,5,0.00
2013-1-3,49.0,42.9,37.6,45.9,33.9,25.0,90,71,55,30.14,29.94,4,1,4,0.29
2013-1-4,48.8,46.6,43.6,46.3,44.1,41.0,92,91,89,30.22,30.03,1,0,1,0.04
2013-1-5,49.7,46.0,43.9,45.3,42.7,40.7,91,88,83,30.09,29.98,2,0,2,0.54
2013-1-6,47.5,44.4,40.7,45.6,42.4,38.8,94,92,91,30.12,29.97,2,0,5,0.35
2013-1-7,51.1,49.3,46.3,49.4,47.7,44.4,95,94,93,30.15,29.93,3,0,8,1.24
2013-1-8,51.1,50.0,48.2,50.0,48.7,46.9,96,95,95,30.12,29.83,4,1,5,0.45
2013-1-9,49.1,44.1,37.8,48.1,42.1,35.6,96,92,87,29.90,29.65,6,2,8,0.34
2013-1-10,43.6,40.3,36.5,41.3,38.0,34.4,93,91,86,30.06,29.90,13,2,15,0.44
2013-1-11,43.2,37.7,33.8,39.6,34.6,28.8,92,89,82,30.21,30.03,8,1,10,0.03
2013-1-12,41.4,35.5,32.0,36.3,30.7,27.9,87,83,76,30.29,30.18,3,1,4,0.01
2013-1-13,37.1,32.6,29.3,32.7,29.0,26.3,89,87,84,30.37,30.29,2,0,2,0.00
2013-1-14,40.3,35.3,29.7,37.3,32.0,26.5,92,88,82,30.45,30.37,2,0,2,0.02
2013-1-15,45.2,40.2,35.3,43.0,37.9,32.9,93,92,89,30.54,30.44,3,0,3,0.01
2013-1-16,44.3,38.1,33.3,41.3,34.8,30.8,92,88,76,30.50,30.30,4,1,4,0.00
2013-1-17,48.6,41.8,36.0,41.9,34.2,29.8,81,74,65,30.30,30.12,3,1,4,0.00
2013-1-18,49.7,44.0,40.9,43.0,36.5,31.8,86,75,63,30.14,30.08,2,0,3,0.00
2013-1-19,45.4,41.7,38.5,41.8,36.9,31.3,91,83,70,30.20,30.11,2,0,2,0.05
2013-1-20,45.0,38.8,34.0,41.7,34.7,30.2,91,85,73,30.20,30.08,3,0,4,0.00
2013-1-21,48.2,42.4,36.2,41.0,33.5,29.9,81,71,57,30.10,29.96,2,0,2,0.00
2013-1-22,55.3,48.3,43.4,40.0,33.8,28.3,67,57,46,29.98,29.79,2,0,2,0.00
2013-1-23,47.3,45.2,42.3,43.8,39.2,32.9,90,80,59,30.09,29.75,4,1,5,0.71
2013-1-24,49.7,44.1,37.8,46.5,41.7,35.6,93,91,88,30.09,29.97,4,1,4,0.27
2013-1-25,49.9,46.6,42.1,47.6,44.4,40.2,93,92,91,30.02,29.85,3,0,5,0.32
2013-1-26,45.7,42.7,39.8,43.8,40.9,37.9,94,93,93,30.02,29.85,3,0,5,0.50
2013-1-27,44.8,41.7,38.5,42.9,40.2,36.9,95,94,92,30.07,29.97,8,1,9,0.81
2013-1-28,46.8,45.2,43.7,44.6,42.9,41.3,93,92,90,30.20,30.03,8,3,8,0.24
2013-1-29,48.2,46.0,44.6,46.1,44.1,42.5,94,93,92,30.43,30.21,5,2,6,0.05
2013-1-30,49.5,47.6,45.9,47.8,46.0,44.0,95,94,93,30.42,30.37,3,0,4,1.44
2013-1-31,49.5,45.3,42.8,48.3,43.9,41.5,96,95,94,30.37,30.25,1,0,1,0.02
2013-2-1,49.5,45.6,42.3,47.5,43.9,40.4,95,94,92,30.25,30.12,3,0,3,0.00
2013-2-2,52.9,46.2,40.5,49.2,43.6,38.6,93,90,83,30.23,30.10,2,0,2,0.00
2013-2-3,49.5,47.5,45.7,47.0,45.1,43.3,92,91,90,30.23,30.13,1,0,1,0.00
2013-2-4,50.4,46.6,43.2,47.5,44.1,41.0,93,91,89,30.15,29.87,3,0,6,0.00
2013-2-5,49.3,46.7,45.4,47.4,44.9,42.9,95,93,90,29.96,29.81,3,0,6,0.50
2013-2-6,48.1,45.4,41.6,46.8,43.9,39.7,96,94,91,29.99,29.73,3,0,5,0.61
2013-2-7,44.3,40.8,36.4,42.9,39.4,35.0,96,95,94,30.05,29.83,1,0,2,0.24
2013-2-8,45.4,39.7,33.7,43.5,37.9,32.3,96,93,89,30.19,30.05,7,2,10,0.01
2013-2-9,47.2,43.9,39.2,45.3,42.1,37.3,94,93,92,30.21,30.17,4,0,5,0.04
2013-2-10,49.0,46.0,43.6,46.9,43.8,41.9,95,92,88,30.25,30.19,5,1,6,0.01
2013-2-11,49.7,45.9,42.8,45.9,43.1,39.9,94,90,86,30.32,30.23,2,0,2,0.15
2013-2-12,50.6,48.4,46.6,48.9,46.8,45.0,95,94,94,30.41,30.32,2,0,3,0.15
2013-2-13,50.4,47.6,45.2,48.8,46.1,43.6,96,95,93,30.42,30.36,3,0,3,0.07
2013-2-14,51.8,46.3,41.8,50.1,44.8,40.4,96,94,93,30.47,30.35,4,1,5,0.01
2013-2-15,50.8,45.1,40.7,49.1,43.6,39.3,96,94,93,30.35,30.10,4,0,4,0.00
2013-2-16,51.1,46.5,41.4,49.4,44.8,39.5,95,94,91,30.22,30.16,6,1,8,0.11
2013-2-17,47.5,42.5,38.9,44.9,40.2,37.2,95,92,87,30.22,29.98,5,1,7,0.03
2013-2-18,45.2,41.1,37.4,43.3,39.2,35.5,95,93,91,29.98,29.60,3,0,5,0.60
2013-2-19,46.4,42.3,39.1,44.9,40.6,37.7,97,94,89,29.92,29.54,6,1,7,0.32
2013-2-20,45.9,41.2,36.2,44.6,39.5,34.6,95,94,92,30.03,29.92,6,1,6,0.53
2013-2-21,45.5,43.9,41.6,43.9,42.2,39.7,95,94,93,30.14,30.03,4,1,5,0.22
2013-2-22,48.4,45.5,42.1,47.6,44.3,40.5,97,96,93,30.10,29.84,8,2,9,0.93
2013-2-23,47.5,43.7,39.8,44.8,41.2,37.9,93,91,87,30.35,30.03,9,3,10,0.10
2013-2-24,49.5,43.9,39.6,46.1,41.6,37.7,95,92,87,30.35,29.96,3,0,6,0.13
2013-2-25,47.9,44.4,38.3,45.2,42.0,36.2,94,91,88,30.30,29.95,7,2,8,0.22
2013-2-26,50.0,42.6,37.1,45.9,39.6,35.2,94,89,83,30.29,30.14,1,0,2,0.00
2013-2-27,49.7,46.8,43.7,48.2,44.9,41.0,96,93,88,30.19,30.09,2,0,4,0.23
2013-2-28,50.2,49.5,48.8,49.1,48.4,47.4,97,96,95,30.35,30.08,4,1,7,0.77
2013-3-1,52.9,49.8,45.4,52.0,49.0,44.3,97,97,96,30.37,30.22,5,0,5,0.02
2013-3-2,51.7,47.2,43.2,50.5,46.2,41.9,97,96,95,30.23,30.12,6,1,7,0.07
2013-3-3,47.9,42.6,37.4,45.2,40.1,35.3,95,91,87,30.23,30.11,6,2,7,0.00
2013-3-4,50.0,41.7,34.6,46.3,39.0,32.9,94,90,82,30.11,29.77,2,0,4,0.00
2013-3-5,45.0,43.2,41.8,43.7,41.3,36.5,97,93,74,29.77,29.49,4,0,4,0.70
2013-3-6,48.2,44.6,42.3,47.4,43.5,41.2,97,96,95,29.85,29.45,2,0,5,0.35
2013-3-7,49.7,42.5,38.2,47.4,41.0,37.1,96,94,91,29.94,29.85,4,0,4,0.02
2013-3-8,48.2,42.4,35.6,46.6,40.8,34.3,96,94,92,30.11,29.92,6,2,7,0.01
2013-3-9,49.3,43.4,37.6,46.8,41.5,36.2,96,93,89,30.41,30.11,4,1,5,0.00
2013-3-10,50.4,44.8,38.5,47.6,42.9,36.9,94,93,88,30.40,30.32,1,0,1,0.02
2013-3-11,52.2,48.9,46.4,50.5,47.4,44.8,96,95,94,30.33,30.14,1,0,1,0.02
2013-3-12,54.5,49.5,46.6,52.2,47.9,45.0,96,94,91,30.14,30.09,3,0,4,0.00
2013-3-13,55.1,49.3,45.7,52.6,47.2,44.1,95,93,87,30.15,30.01,2,0,2,0.00
2013-3-14,52.6,48.9,47.2,50.0,47.0,45.5,95,93,89,30.13,29.97,5,0,5,0.11
2013-3-15,55.1,50.5,47.2,53.9,49.2,45.8,97,95,93,30.15,30.11,2,0,3,0.03
2013-3-16,49.7,46.7,43.4,48.5,45.5,41.0,96,95,91,30.11,29.97,7,1,8,0.40
2013-3-17,50.8,44.8,40.7,46.6,41.5,38.5,93,88,83,30.22,30.10,5,1,7,0.02
2013-3-18,50.0,42.5,36.7,47.0,40.4,35.1,96,92,87,30.19,29.99,7,1,7,0.02
2013-3-19,51.1,46.1,39.6,48.2,42.6,37.4,96,88,74,29.99,29.53,2,1,6,0.68
2013-3-20,49.7,47.4,41.4,48.5,45.5,38.4,96,93,87,30.11,29.44,6,2,7,0.31
2013-3-21,49.1,44.2,41.2,45.1,41.1,38.7,93,89,85,30.25,30.10,6,2,9,0.04
2013-3-22,46.6,40.6,36.4,44.2,38.3,34.5,95,92,88,30.30,30.22,6,1,9,0.10
2013-3-23,47.9,41.0,35.3,43.6,37.5,32.9,94,88,77,30.29,30.16,4,1,5,0.00
2013-3-24,52.6,44.8,39.4,46.6,40.1,35.2,88,84,77,30.16,29.98,4,1,4,0.00
2013-3-25,52.4,45.7,41.0,47.2,41.8,37.7,91,86,82,29.98,29.85,3,1,3,0.01
2013-3-26,53.3,47.1,41.4,50.9,45.1,39.0,94,92,89,29.92,29.85,1,0,2,0.02
2013-3-27,58.0,50.3,44.6,53.8,47.7,42.8,94,91,84,29.88,29.80,1,0,2,0.01
2013-3-28,55.4,50.8,45.7,53.1,48.8,43.8,95,93,90,30.05,29.88,3,0,3,0.02
2013-3-29,55.8,50.5,47.5,52.8,48.4,45.9,94,92,87,30.10,30.03,6,1,6,0.00
2013-3-30,62.8,52.5,45.0,55.9,48.7,43.1,95,87,71,30.05,29.83,5,1,6,0.00
2013-3-31,58.3,52.3,47.9,53.6,49.5,45.9,94,90,84,29.94,29.86,4,0,5,0.00
2013-4-1,54.7,51.4,49.5,53.0,49.5,47.8,95,93,91,30.10,29.93,1,0,3,0.05
2013-4-2,60.1,51.5,48.2,56.9,49.3,46.8,95,92,87,30.14,30.07,2,0,3,0.02
2013-4-3,55.8,50.5,45.9,52.6,48.1,44.3,94,91,88,30.08,29.80,3,0,3,0.00
2013-4-4,54.4,51.5,49.9,53.5,50.0,48.1,97,95,92,29.80,29.58,6,1,7,0.44
2013-4-5,51.8,50.9,50.4,50.7,49.8,49.2,97,96,96,29.86,29.70,5,1,6,0.48
2013-4-6,53.5,49.9,46.8,52.4,49.1,45.9,98,97,96,29.92,29.54,3,0,6,0.44
2013-4-7,50.6,47.7,44.3,49.7,46.5,42.4,98,96,92,29.89,29.49,6,2,12,0.37
2013-4-8,55.1,47.8,43.0,52.5,45.4,40.6,95,91,86,30.20,29.89,5,2,8,0.04
2013-4-9,58.3,48.9,43.0,53.8,45.7,40.9,93,89,82,30.24,30.14,1,0,2,0.00
2013-4-10,53.6,49.6,47.2,52.2,47.4,43.6,95,92,87,30.25,30.07,5,2,5,0.17
2013-4-11,47.9,47.4,46.3,45.7,45.3,44.4,93,92,92,30.27,30.24,3,1,5,0.00
2013-4-12,54.0,48.2,45.0,48.3,45.4,42.6,94,90,81,29.89,29.80,7,2,7,0.02
2013-4-13,53.6,46.4,41.2,48.4,43.1,38.8,93,88,82,30.04,29.89,8,2,8,0.15
2013-4-14,53.3,45.4,41.0,49.8,42.9,39.2,95,91,87,30.01,29.87,5,1,5,0.08
2013-4-15,52.2,46.4,39.8,48.8,43.6,38.2,95,90,84,30.10,29.88,7,3,7,0.06
2013-4-16,56.9,49.6,44.5,50.8,45.6,41.1,91,86,78,30.32,30.09,6,2,6,0.10
2013-4-17,58.9,49.6,42.8,52.2,45.4,40.1,92,86,76,30.41,30.31,3,1,3,0.00
2013-4-18,59.6,51.7,44.3,51.1,46.4,40.7,91,83,71,30.40,30.25,4,1,4,0.03
2013-4-19,53.3,50.7,49.0,51.8,48.9,47.4,95,94,91,30.26,30.11,4,1,4,0.49
2013-4-20,58.7,50.9,47.9,54.0,48.0,44.4,95,90,82,30.27,30.21,4,2,4,0.01
2013-4-21,58.0,50.9,46.8,53.5,47.5,44.2,93,88,83,30.22,30.17,6,1,6,0.02
2013-4-22,61.0,49.8,41.6,52.4,45.0,38.9,91,84,71,30.28,30.21,10,2,10,0.00
2013-4-23,57.6,49.1,41.8,49.9,44.0,37.5,91,83,71,30.24,30.06,10,3,10,0.00
2013-4-24,64.6,51.5,41.8,53.1,44.1,38.8,91,77,56,30.09,29.91,12,2,12,0.00
2013-4-25,58.9,51.4,46.1,52.4,47.0,42.6,91,85,78,30.08,29.91,7,3,7,0.00
2013-4-26,55.4,50.0,46.1,50.3,46.9,43.2,92,89,82,30.16,30.07,7,2,7,0.03
2013-4-27,59.4,50.7,44.3,53.2,47.0,41.6,94,87,77,30.23,30.14,2,0,2,0.00
2013-4-28,62.3,53.7,49.5,57.3,50.1,46.7,93,88,79,30.21,30.05,3,0,3,0.18
2013-4-29,57.2,50.6,45.9,49.9,45.5,39.7,94,83,65,30.15,30.03,7,3,7,0.04
2013-4-30,57.1,48.3,42.8,48.5,41.3,38.1,87,77,65,30.34,30.14,8,3,8,0.01
2013-5-1,59.2,48.1,38.7,49.1,41.7,33.4,86,79,67,30.38,30.29,7,2,7,0.00
2013-5-2,67.3,51.9,44.8,52.9,44.9,40.1,87,78,55,30.29,30.18,11,3,11,0.10
2013-5-3,64.6,52.0,44.3,55.1,46.6,40.9,88,82,67,30.21,30.02,9,3,9,0.02
2013-5-4,88.6,59.7,45.4,61.1,47.2,40.9,91,70,25,30.03,29.77,8,1,8,0.00
2013-5-5,81.0,66.1,54.5,47.7,45.3,43.0,73,50,29,29.75,29.56,6,1,6,0.00
2013-5-6,56.3,53.9,52.2,48.8,46.3,44.2,77,75,72,29.80,29.73,3,0,3,0.00
2013-5-20,48.6,48.2,47.9,44.6,44.2,43.9,86,86,86,30.17,30.17,1,0,1,0.00
2013-5-22,52.7,50.5,49.0,50.8,48.4,47.0,94,93,92,29.89,29.84,4,1,4,0.63
2013-5-23,52.4,50.3,49.0,50.7,48.6,47.0,94,94,94,29.91,29.87,5,0,5,0.37
2013-5-24,54.4,50.7,48.6,53.2,49.2,47.3,96,95,94,29.99,29.88,4,0,4,0.11
2013-5-25,60.1,53.9,49.0,55.5,51.2,47.2,95,91,84,29.98,29.83,3,0,3,0.03
2013-5-26,57.8,54.0,51.7,55.3,52.0,49.7,95,93,90,29.96,29.83,4,0,4,0.01
2013-5-27,55.6,53.7,52.0,54.2,52.1,50.1,96,95,93,29.86,29.62,8,1,8,0.98
2013-5-28,57.4,54.0,51.5,56.1,52.4,49.5,97,94,92,29.86,29.59,6,0,6,0.36
2013-5-29,58.5,54.1,50.8,56.8,52.4,48.6,96,94,92,29.97,29.50,6,1,6,0.51
2013-5-30,58.9,53.3,49.3,56.3,51.1,47.4,95,92,88,30.16,29.96,3,0,3,0.02
2013-5-31,59.6,53.6,47.5,55.3,50.6,45.6,94,90,84,30.22,30.14,8,2,8,0.00
2013-6-1,62.3,56.4,51.1,57.3,52.8,48.2,93,88,82,30.14,29.97,4,1,4,0.00
2013-6-2,58.9,56.0,54.4,55.2,52.8,50.9,92,89,85,30.01,29.95,10,4,10,0.03
2013-6-3,59.0,55.4,53.1,53.9,51.1,49.5,89,85,82,30.01,29.96,10,4,10,0.01
2013-6-4,60.8,55.1,51.5,56.4,51.4,47.7,89,87,84,29.98,29.91,8,3,8,0.00
2013-6-5,57.6,54.6,52.6,54.4,51.7,49.7,92,90,89,30.01,29.93,7,3,7,0.00
2013-6-6,57.2,54.1,51.8,52.9,50.8,49.2,91,89,85,29.98,29.93,8,3,8,0.00
2013-6-7,60.8,55.5,52.2,56.0,52.1,49.6,91,89,83,30.06,29.97,8,2,8,0.01
2013-6-8,58.0,53.9,50.9,52.5,49.9,47.8,90,86,81,30.06,29.99,9,4,9,0.00
2013-6-9,58.0,53.4,50.8,52.5,49.1,46.6,90,85,81,30.01,29.93,10,5,10,0.00
2013-6-10,57.6,53.1,49.3,51.9,47.8,44.3,85,82,79,29.93,29.87,7,3,7,0.00
2013-6-12,60.5,55.5,50.6,55.6,51.6,47.1,92,87,79,30.11,30.03,2,0,2,0.14
2013-6-13,59.4,55.6,53.1,56.3,52.7,50.1,92,90,87,30.20,30.06,2,0,2,0.24
2013-6-14,61.9,57.4,54.2,56.3,53.4,50.2,92,87,78,30.19,29.86,6,2,6,0.01
2013-6-15,59.8,56.4,52.4,56.0,52.9,49.3,91,88,86,29.95,29.81,2,0,2,0.00
2013-6-16,63.9,58.7,54.4,57.4,54.2,50.9,89,85,79,30.03,29.94,2,0,2,0.06
2013-6-17,61.2,57.3,54.2,56.1,53.5,50.7,91,87,82,30.01,29.91,4,0,4,0.06
2013-6-18,59.4,56.8,54.4,56.5,53.8,51.8,91,90,86,29.91,29.86,4,0,4,0.12
2013-6-19,62.8,57.7,54.0,59.0,54.7,51.6,92,90,86,30.01,29.84,3,0,3,0.38
2013-6-20,65.5,59.1,55.1,59.2,55.1,52.5,91,87,79,30.04,29.96,3,0,3,0.04
2013-6-21,65.3,59.3,54.4,58.3,54.2,50.9,88,83,76,30.07,30.00,6,2,6,0.00
2013-6-22,67.0,59.7,53.6,60.0,55.1,49.9,89,85,78,30.01,29.75,3,0,3,0.05
2013-6-23,64.8,61.0,58.3,61.9,58.3,54.8,92,91,87,29.75,29.53,3,0,3,0.39
2013-6-24,61.6,58.4,56.5,58.3,55.7,54.1,93,91,87,29.61,29.54,5,0,5,0.26
2013-6-25,61.6,58.7,57.1,59.6,56.6,54.9,93,93,92,29.73,29.55,5,0,5,0.31
2013-6-26,66.2,61.7,58.3,62.8,59.1,56.0,94,91,87,29.91,29.72,2,0,2,0.04
2013-6-27,66.6,63.3,60.8,63.4,60.4,58.0,92,90,87,30.08,29.88,3,0,3,0.02
2013-6-28,70.6,63.1,58.0,65.4,60.0,55.5,93,90,82,30.05,29.98,2,0,2,0.01
2013-6-29,69.7,64.1,59.8,64.4,60.3,57.1,92,88,81,30.01,29.87,6,2,6,0.00
2013-6-30,69.7,64.3,59.9,64.4,60.5,57.1,92,87,80,29.87,29.83,5,2,5,0.00
2013-7-1,64.1,62.0,60.5,61.5,59.3,57.9,93,91,89,29.97,29.85,6,3,6,0.00
2013-7-2,64.4,61.2,59.4,59.5,57.8,56.3,92,88,83,30.01,29.94,8,4,8,0.00
2013-7-3,63.4,59.2,56.7,57.3,54.9,52.6,90,86,79,30.06,30.00,9,4,9,0.00
2013-7-4,63.0,58.4,54.9,56.7,53.3,50.4,87,83,78,30.05,29.97,8,4,8,0.01
2013-7-5,63.7,58.9,56.2,57.4,53.8,51.0,87,83,77,29.98,29.89,8,4,8,0.00
2013-7-6,61.7,58.0,55.3,55.4,52.8,50.0,87,83,79,29.89,29.81,7,3,7,0.01
2013-7-7,62.1,57.9,55.3,56.1,53.3,51.4,88,85,77,29.90,29.83,6,3,6,0.03
2013-7-8,62.1,57.8,55.3,54.8,52.5,50.6,86,82,77,29.98,29.89,5,3,5,0.00
2013-7-10,58.1,55.5,52.6,52.4,50.3,48.3,86,83,79,29.98,29.90,9,5,9,0.03
2013-7-11,59.6,55.4,52.6,52.6,49.8,47.3,85,81,74,29.97,29.90,6,4,7,0.00
2013-7-12,59.6,54.9,50.9,53.5,50.1,47.0,87,84,79,30.00,29.90,5,3,5,0.02
2013-7-13,59.2,54.4,50.6,52.7,49.7,46.2,90,84,79,30.05,29.96,9,4,9,0.06
2013-7-14,56.9,53.0,50.8,52.4,49.8,48.1,92,89,84,30.00,29.91,8,4,8,0.00
2013-7-15,52.4,52.4,52.4,49.5,49.5,49.5,90,90,90,29.93,29.93,3,3,3,0.00
2013-7-21,58.0,55.6,53.6,54.1,52.3,50.8,91,89,87,29.88,29.88,7,4,7,0.00
2013-9-5,61.7,61.7,61.7,59.4,59.4,59.4,92,92,92,29.92,29.92,0,0,0,0.00
2013-9-10,62.6,58.2,54.5,60.0,55.9,52.6,94,92,90,29.78,29.64,6,2,6,0.00
2013-9-11,63.0,59.4,56.3,59.8,57.1,54.2,93,92,89,29.88,29.66,3,0,6,0.00
2013-9-12,63.2,60.6,58.7,60.1,58.1,56.1,94,92,87,29.89,29.85,2,0,2,0.01
2013-9-13,63.7,60.5,58.5,60.8,58.2,56.1,93,92,90,29.88,29.75,4,1,4,0.02
2013-9-14,60.1,59.6,59.0,57.8,57.4,56.9,93,92,92,29.75,29.73,2,1,2,0.00
2013-9-17,65.5,60.8,58.0,61.8,57.8,55.1,93,90,86,29.91,29.77,2,0,3,0.00
2013-9-18,63.2,58.5,54.7,60.4,56.1,52.8,93,91,89,29.98,29.87,3,0,4,0.01
2013-9-19,65.5,58.2,54.5,60.6,54.5,51.0,91,88,83,29.87,29.67,2,0,3,0.04
2013-9-20,60.7,58.7,55.6,58.7,55.7,50.7,93,90,81,29.67,29.53,4,0,4,0.14
2013-9-21,64.1,59.5,57.2,60.5,57.1,55.3,94,92,87,29.67,29.54,2,0,3,0.00
2013-9-22,60.5,58.0,56.7,59.3,56.4,55.0,96,94,92,29.74,29.54,6,1,7,0.47
2013-9-23,60.5,58.2,55.8,58.9,56.5,54.4,95,94,93,29.88,29.74,2,0,4,0.26
2013-9-24,57.4,54.7,50.8,55.7,52.9,48.8,94,93,92,29.87,29.75,2,0,4,0.37
2013-9-25,58.0,50.9,49.1,54.9,49.1,47.2,95,94,89,29.87,29.75,1,0,2,0.23
2013-9-26,61.2,55.7,48.6,58.0,53.0,46.5,93,91,87,30.06,29.96,2,0,2,0.00
2013-9-27,58.7,54.8,51.3,57.2,52.9,48.7,95,94,91,30.05,29.79,4,1,6,0.27
2013-9-28,58.9,57.6,54.7,57.5,56.4,53.6,97,96,95,29.79,29.40,6,1,9,1.15
2013-9-29,58.9,56.4,54.5,58.0,55.3,53.4,97,96,95,29.56,29.28,4,1,7,1.44
2013-9-30,57.8,55.4,53.1,55.8,53.7,51.3,95,94,92,29.87,29.53,4,0,5,0.30
2013-10-1,66.6,53.0,48.4,60.9,50.3,46.2,96,91,76,30.09,29.84,2,0,4,0.21
2013-10-2,55.6,50.8,47.2,53.7,48.5,45.0,95,92,85,30.09,29.98,3,0,4,0.00
2013-10-3,57.2,50.5,44.8,53.0,47.7,42.9,94,90,84,30.30,30.09,3,1,4,0.00
2013-10-4,68.2,52.7,46.1,62.9,48.9,43.3,91,87,77,30.32,30.22,1,0,1,0.00
2013-10-5,60.8,54.5,49.3,56.2,50.4,45.9,90,86,81,30.23,30.01,0,0,0,0.00
2013-10-6,62.1,58.8,55.6,56.9,52.6,48.0,90,80,67,30.01,29.90,0,0,0,0.12
2013-10-7,59.6,56.3,53.5,55.4,52.9,50.6,92,89,83,30.09,29.92,0,0,0,0.30
2013-10-8,56.3,54.1,50.4,53.2,50.7,46.0,92,88,81,30.09,29.93,0,0,0,0.07
2013-10-9,57.6,51.0,43.7,52.1,46.9,40.8,91,86,81,29.99,29.88,0,0,0,0.00
2013-10-10,58.5,53.1,49.7,54.6,49.5,46.1,91,88,82,30.02,29.86,0,0,0,0.01
2013-10-11,58.0,52.1,48.6,53.5,48.5,45.7,90,87,80,30.07,30.01,0,0,0,0.00
2013-10-12,57.6,51.7,48.6,54.5,48.9,45.5,94,90,87,30.07,29.97,0,0,0,0.10
2013-10-13,49.3,48.5,47.5,46.8,46.0,45.4,92,91,91,30.10,30.07,0,0,0,0.00
2013-11-6,56.5,55.5,54.9,55.1,54.1,53.5,95,95,95,30.13,29.98,0,0,0,0.01
2013-11-7,55.1,52.5,50.0,53.6,50.8,48.4,96,94,91,30.06,29.83,0,0,0,0.03
2013-11-8,52.2,50.2,47.0,50.5,48.5,45.4,94,94,93,30.10,30.01,0,0,0,0.06
2013-11-9,51.8,48.7,45.4,49.5,46.7,43.5,95,93,89,30.00,29.91,0,0,0,0.00
2013-11-10,57.2,52.4,49.9,53.4,49.4,46.9,92,90,86,29.97,29.89,0,0,0,0.00
2013-11-11,59.8,54.6,49.1,53.7,49.3,47.1,93,83,69,29.97,29.85,0,0,0,0.00
2013-11-12,55.8,54.0,51.8,53.9,52.0,49.2,95,93,81,30.33,29.95,0,0,0,0.18
2013-11-13,53.8,51.3,48.1,52.2,49.5,46.4,95,94,92,30.37,30.20,0,0,0,0.00
2013-11-14,51.3,48.5,45.7,49.6,46.9,43.8,94,94,93,30.20,30.02,0,0,0,0.05
2013-11-15,51.5,46.9,42.5,49.8,45.2,40.6,95,94,93,30.03,29.56,0,0,0,0.05
2013-11-16,52.2,50.8,49.1,49.8,47.5,45.9,94,89,86,29.78,29.55,0,0,0,0.00
2013-11-17,52.4,50.8,49.0,50.7,48.7,46.8,94,93,90,29.89,29.78,0,0,0,0.14
2013-11-18,52.2,51.1,50.0,51.0,49.5,47.8,96,94,89,29.88,29.61,0,0,0,0.62
2013-11-19,52.6,49.1,42.3,51.4,46.1,34.5,96,90,71,29.93,29.61,0,0,0,0.92
2013-11-20,47.3,41.1,35.8,39.6,33.9,28.4,81,75,63,30.25,29.93,0,0,0,0.01
2013-11-21,47.0,38.0,32.2,36.2,29.5,24.4,78,71,63,30.41,30.25,0,0,0,0.00
2013-11-22,50.4,42.1,35.6,36.4,28.5,22.0,68,59,43,30.40,30.17,0,0,0,0.00
2013-11-23,54.4,47.0,41.0,38.6,31.8,24.8,64,55,44,30.18,29.97,0,0,0,0.00
2013-11-24,53.5,48.2,44.5,39.9,32.8,25.3,63,55,45,30.11,29.97,0,0,0,0.04
2013-11-25,53.1,48.5,46.1,43.7,36.6,31.4,80,64,54,30.19,30.11,0,0,0,0.00
2013-11-26,55.1,50.5,45.2,44.2,39.2,33.8,72,65,60,30.12,29.90,0,0,0,0.00
2013-11-27,56.3,51.2,47.2,43.6,38.9,35.8,67,63,57,29.89,29.78,0,0,0,0.00
2013-11-28,51.3,47.3,44.1,43.3,37.7,33.1,80,69,61,30.08,29.86,0,0,0,0.00
2013-11-29,51.1,46.8,41.8,46.5,42.4,37.1,91,85,79,30.25,30.09,0,0,0,0.01
2013-11-30,52.0,48.6,45.2,48.7,45.7,42.8,93,90,86,30.28,30.15,0,0,0,0.04
2013-12-1,52.9,52.1,50.2,51.5,50.4,48.3,95,94,93,30.15,29.92,0,0,0,0.80
2013-12-2,52.0,46.0,39.1,50.3,42.6,36.6,94,88,81,29.97,29.90,0,0,0,0.26
2013-12-3,42.7,38.5,33.3,39.1,34.8,28.0,93,87,76,30.16,29.95,0,0,0,0.04
2013-12-4,39.6,33.7,31.0,32.5,27.5,22.9,83,78,68,30.21,30.15,0,0,0,0.00
2013-12-5,36.5,32.4,28.3,26.1,22.3,18.5,76,66,57,30.17,29.97,0,0,0,0.00
2013-12-6,33.3,31.2,27.2,29.2,26.0,18.4,92,81,61,29.98,29.80,0,0,0,0.00
2013-12-7,31.9,27.1,23.9,22.5,18.1,14.3,77,68,62,30.31,29.96,0,0,0,0.00
2013-12-8,33.5,28.3,21.6,24.7,17.9,12.1,70,65,60,30.44,30.29,0,0,0,0.00
2013-12-9,40.1,34.8,29.3,32.0,25.3,18.3,77,68,59,30.48,30.41,0,0,0,0.01
2013-12-10,45.2,39.8,36.2,38.9,33.8,30.0,82,79,74,30.42,30.25,0,0,0,0.00
2013-12-11,47.7,40.9,35.3,38.8,34.3,30.2,83,77,70,30.25,30.04,0,0,0,0.00
2013-12-12,48.6,44.6,39.1,45.9,40.4,32.8,94,85,74,30.09,29.98,0,0,0,0.41
2013-12-13,49.9,48.1,43.0,47.9,46.2,41.1,94,93,92,30.32,30.09,0,0,0,0.12
2013-12-14,47.7,45.0,41.8,46.1,43.0,39.9,94,93,91,30.35,30.23,0,0,0,0.00
2013-12-15,50.2,48.2,45.4,48.5,46.3,43.2,94,93,92,30.37,30.30,0,0,0,0.06
2013-12-16,48.2,45.5,43.0,46.4,43.6,40.9,94,93,90,30.35,30.09,0,0,0,0.01
2013-12-17,45.9,43.4,40.1,43.5,40.8,37.4,91,90,89,30.13,30.06,0,0,0,0.01
2013-12-18,47.9,45.1,41.0,45.2,42.3,36.8,93,90,84,30.06,29.96,0,0,0,0.03
2013-12-19,42.8,39.6,35.8,37.1,35.0,31.9,87,83,79,30.21,30.04,0,0,0,0.00
2013-12-20,49.1,43.0,38.3,47.4,39.5,33.9,94,87,82,30.12,29.83,0,0,0,0.55
2013-12-21,49.7,48.7,47.9,48.0,47.0,46.0,94,94,93,30.16,29.90,0,0,0,0.06
2013-12-22,49.9,48.6,47.9,48.2,47.0,46.3,94,94,94,30.26,30.16,0,0,0,0.12
2013-12-23,50.0,48.3,44.3,48.3,46.6,42.4,94,94,93,30.44,30.24,0,0,0,0.35
2013-12-24,45.5,42.8,40.1,43.7,40.9,38.3,93,93,92,30.48,30.37,0,0,0,0.00
2013-12-28,46.4,43.6,40.5,42.9,40.1,36.9,89,87,86,30.38,30.34,0,0,0,0.00
2013-12-29,45.9,42.1,38.7,42.6,38.7,35.5,89,88,85,30.34,30.12,0,0,0,0.00
2013-12-30,49.5,45.7,42.3,44.7,40.8,37.8,85,83,81,30.14,30.04,0,0,0,0.02
2013-12-31,49.3,46.4,45.0,46.4,43.2,40.5,91,88,83,30.22,30.12,0,0,0,0.00
2014-1-1,50.6,46.6,43.7,47.1,43.2,40.8,91,88,84,30.22,30.09,0,0,0,0.00
2014-1-2,50.8,48.2,45.7,46.2,43.3,40.8,91,83,79,30.11,29.97,0,0,0,0.19